Regional Weather Roundup
Issued by NWS

Home | Current Version | Previous Version | Graphics & Text | Print | Product List | Glossary Off
Versions: 1 2 3 4 5 6 7 8 9 10 11 12 13 14 15 16 17 18 19 20 21 22 23 24 25 26 27 28 29 30 31 32 33 34 35 36 37 38 39 40 41 42 43 44 45 46 47 48 49 50

000
ASUS43 KFSD 280710
RWRSD

WEATHER ROUNDUP FOR SOUTH DAKOTA
NATIONAL WEATHER SERVICE SIOUX FALLS SD
200 AM CDT FRI JUL 28 2017

NOTE: "FAIR" INDICATES FEW OR NO CLOUDS BELOW 12,000 FEET WITH NO
SIGNIFICANT WEATHER AND/OR OBSTRUCTIONS TO VISIBILITY.


SDZ001>005-009-010-012>017-280800-
NORTHWEST AND NORTH CENTRAL SOUTH DAKOTA

CITY           SKY/WX    TMP DP  RH WIND       PRES   REMARKS
BUFFALO          N/A     61  55  81 E13       29.97F
FAITH            N/A     63  60  90 NE6       30.05F
MOBRIDGE       LGT RAIN  73  62  68 SE10      30.03S
$$

SDZ012>016-024>037-041>051-057-063-072>074-280800-
SOUTHWEST AND SOUTH CENTRAL SOUTH DAKOTA

CITY           SKY/WX    TMP DP  RH WIND       PRES   REMARKS
RAPID CTY ARPT CLEAR     60  54  80 W7        30.06S
PIERRE         CLOUDY    73  58  59 SE9       30.04R
CUSTER         CLOUDY    52  49  89 NW5       30.17S
ELLSWORTH AFB  PTCLDY    62  56  82 SW7       30.05S
PHILIP         CLOUDY    67  62  84 E6        30.03R
PINE RIDGE     CLOUDY    64  60  87 E9        30.03F
SPEARFISH      FAIR      63  57  82 E9        30.05F
WINNER         PTSUNNY   72  61  68 SE7       30.06R
$$

SDZ004>011-016>023-039-040-280800-
NORTHEAST SOUTH DAKOTA

CITY           SKY/WX    TMP DP  RH WIND       PRES   REMARKS
ABERDEEN       MOCLDY    67  62  84 SE5       30.07R
WATERTOWN      PTCLDY    68  60  75 CALM      30.08S
BROOKINGS      PTCLDY    66  62  87 CALM      30.09S
SISSETON         N/A     62  59  90 CALM      30.07R
$$

SDZ017-020-022-023-036>040-048>070-280800-
SOUTHEAST SOUTH DAKOTA

CITY           SKY/WX    TMP DP  RH WIND       PRES   REMARKS
SIOUX FALLS    CLEAR     63  61  93 NE3       30.07F
HURON          MOCLDY    67  64  90 SE7       30.05S
CHAMBERLAIN    CLOUDY    70  64  81 S7        30.05S
MITCHELL       CLOUDY    67  64  90 E5        30.06S
YANKTON        PTCLDY    67  62  84 NE3       30.06S
$$

ABBREVIATIONS USED IN REMARKS
   TC - TEMPERATURE IN CELSIUS
  WCI - WIND CHILL INDEX
   HX - HEAT INDEX
  VSB - VISIBILITY





USA.gov is the U.S. government's official web portal to all federal, state and local government web resources and services.